Trinidad, CO

7:49 AM MDT on June 24, 2017 (GMT -0600)
Stokes

Weather History for KTAD - September, 2013

Change the Weather History Date:

Monday, September 16, 2013

  Actual Average Record
Temperature  
Mean Temperature 64 °F 64 °F  
Max Temperature 74 °F 80 °F 92 °F (1954)
Min Temperature 53 °F 49 °F 33 °F (1965)
Degree Days  
Heating Degree Days 1 3  
Month to date heating degree days 8 28  
Since 1 July heating degree days 13 38  
Cooling Degree Days 0 2  
Month to date cooling degree days 106 58  
Year to date cooling degree days 1032  
Growing Degree Days 12 (Base 50)    
Moisture  
Dew Point 54 °F    
Average Humidity 77    
Maximum Humidity 100    
Minimum Humidity 53    
Precipitation  
Precipitation 0.01 in 0.05 in 0.39 in (2001)
Month to date precipitation 2.01  
Year to date precipitation 9.32  
Sea Level Pressure  
Sea Level Pressure 30.19 in    
Wind  
Wind Speed 4 mph (West)    
Max Wind Speed 14 mph    
Max Gust Speed 16 mph    
Visibility 9 miles    
Events Fog , Rain    
T = Trace of Precipitation, MM = Missing Value Source: NWS Daily Summary

Daily Weather History Graph

Daily Weather History Graph

Search for Another Location

Airport or City:

Trip Planner

Search our weather history database for the weather conditions in past years. The results will help you decide how hot, cold, wet, or windy it might be!

Date:

Astronomy

Sep. 16, 2013 Rise Set
Actual Time 6:40 AM MDT 7:03 PM MDT
Civil Twilight 6:14 AM MDT 7:29 PM MDT
Nautical Twilight 5:43 AM MDT 7:59 PM MDT
Astronomical Twilight 5:12 AM MDT 8:30 PM MDT
Moon 5:11 PM MDT (9/16) 3:32 AM MDT (9/16)
Length of Visible Light 13h 14m
Length of Day
12h 22m
Waxing Gibbous, 90% of the Moon is Illuminated
Sep 16
Waxing Gibbous
Sep 19
Full
Sep 26
Last Quarter
Oct 4
New
Oct 11
First Quarter

Hourly Weather History & Observations

Time (MDT) Temp. Dew Point Humidity Pressure Visibility Wind Dir Wind Speed Gust Speed Precip Events Conditions
12:20 AM 55.4 °F 55.4 °F 100% 30.30 in 10.0 mi Calm Calm - N/A   Overcast
12:54 AM 57.0 °F 55.0 °F 93% 30.14 in 10.0 mi Calm Calm - N/A   Overcast
1:21 AM 55.4 °F 53.6 °F 94% 30.29 in 10.0 mi SSW 3.5 mph - 0.00 in   Mostly Cloudy
1:29 AM 55.4 °F 53.6 °F 94% 30.29 in 10.0 mi South 3.5 mph - 0.00 in   Mostly Cloudy
1:54 AM 55.9 °F 54.0 °F 93% 30.12 in 10.0 mi Calm Calm - 0.00 in   Overcast
2:19 AM 55.4 °F 55.4 °F 100% 30.28 in 10.0 mi West 5.8 mph - N/A   Overcast
2:54 AM 55.9 °F 54.0 °F 93% 30.10 in 10.0 mi WNW 5.8 mph - N/A   Mostly Cloudy
3:31 AM 55.4 °F 55.4 °F 100% 30.27 in 10.0 mi NW 6.9 mph - N/A   Overcast
3:39 AM 55.4 °F 55.4 °F 100% 30.27 in 7.0 mi NNW 6.9 mph - N/A   Overcast
3:54 AM 55.9 °F 54.0 °F 93% 30.10 in 9.0 mi NW 8.1 mph - N/A   Overcast
4:18 AM 55.4 °F 53.6 °F 94% 30.26 in 10.0 mi NNW 4.6 mph - N/A   Partly Cloudy
4:54 AM 53.1 °F 52.0 °F 96% 30.12 in 10.0 mi NW 6.9 mph - N/A   Clear
5:22 AM 53.6 °F 53.6 °F 100% 30.28 in 10.0 mi NW 3.5 mph - N/A   Mostly Cloudy
5:51 AM 55.4 °F 53.6 °F 94% 30.28 in 10.0 mi NW 4.6 mph - N/A   Overcast
5:54 AM 55.0 °F 53.1 °F 93% 30.12 in 10.0 mi NNW 3.5 mph - N/A   Overcast
6:01 AM 55.4 °F 53.6 °F 94% 30.29 in 10.0 mi Calm Calm - N/A   Overcast
6:05 AM 55.4 °F 53.6 °F 94% 30.29 in 10.0 mi Calm Calm - N/A   Overcast
6:13 AM 55.4 °F 53.6 °F 94% 30.30 in 9.0 mi Calm Calm - N/A   Overcast
6:30 AM 55.4 °F 53.6 °F 94% 30.30 in 1.8 mi Calm Calm - N/A   Overcast
6:40 AM 55.4 °F 53.6 °F 94% 30.30 in 0.5 mi Calm Calm - N/A Fog Fog
7:44 AM 55.4 °F 55.4 °F 100% 30.31 in 0.8 mi Calm Calm - N/A   Overcast
7:49 AM 55.4 °F 55.4 °F 100% 30.31 in 2.5 mi Calm Calm - N/A   Overcast
7:54 AM 55.9 °F 55.0 °F 97% 30.16 in 10.0 mi Calm Calm - N/A   Overcast
8:10 AM 55.4 °F 55.4 °F 100% 30.31 in 1.8 mi ESE 3.5 mph - N/A   Overcast
8:16 AM 55.4 °F 55.4 °F 100% 30.31 in 3.0 mi Calm Calm - N/A   Overcast
8:54 AM 55.9 °F 55.0 °F 97% 30.16 in 10.0 mi Calm Calm - N/A   Overcast
9:07 AM 55.4 °F 55.4 °F 100% 30.31 in 10.0 mi Calm Calm - N/A   Overcast
9:29 AM 57.2 °F 55.4 °F 94% 30.32 in 10.0 mi ESE 4.6 mph - N/A   Overcast
9:49 AM 57.2 °F 55.4 °F 94% 30.32 in 10.0 mi Calm Calm - 0.00 in Rain Light Rain
9:54 AM 59.0 °F 55.0 °F 87% 30.16 in 10.0 mi Calm Calm - 0.00 in   Overcast
10:17 AM 59.0 °F 55.4 °F 88% 30.32 in 10.0 mi SSE 3.5 mph - N/A   Overcast
10:54 AM 61.0 °F 54.0 °F 78% 30.14 in 10.0 mi SSE 3.5 mph - N/A   Mostly Cloudy
11:12 AM 64.4 °F 55.4 °F 73% 30.31 in 10.0 mi Calm Calm - N/A   Scattered Clouds
11:54 AM 66.0 °F 54.0 °F 65% 30.11 in 10.0 mi Calm Calm - N/A   Partly Cloudy
12:54 PM 68.0 °F 55.0 °F 63% 30.08 in 10.0 mi SE 8.1 mph - N/A   Scattered Clouds
1:54 PM 71.1 °F 55.0 °F 57% 30.04 in 10.0 mi Variable 5.8 mph - N/A   Clear
2:54 PM 71.1 °F 53.1 °F 53% 30.02 in 10.0 mi Calm Calm - N/A   Clear
3:54 PM 71.1 °F 53.1 °F 53% 29.99 in 10.0 mi West 8.1 mph - N/A   Partly Cloudy
4:54 PM 70.0 °F 54.0 °F 57% 29.99 in 10.0 mi SE 6.9 mph - N/A   Clear
6:54 PM 68.0 °F 55.0 °F 63% 29.99 in 10.0 mi SSW 3.5 mph - N/A   Clear
7:54 PM 64.0 °F 54.0 °F 70% 30.01 in 10.0 mi SSW 6.9 mph - N/A   Clear
8:54 PM 62.1 °F 54.0 °F 75% 30.02 in 10.0 mi West 3.5 mph - N/A   Clear
9:54 PM 62.1 °F 54.0 °F 75% 30.01 in 10.0 mi SW 6.9 mph - N/A   Clear
10:54 PM 59.0 °F 54.0 °F 83% 30.03 in 10.0 mi North 5.8 mph - N/A   Clear
11:54 PM 59.0 °F 53.1 °F 81% 30.00 in 10.0 mi WNW 3.5 mph - N/A   Clear